User: anonymous   Login
Location: Zagreb
(45.8000°N, 16.0000°E)
Time: 12:08:36
(UTC+02:00)
Language:

S-56A Canister/Altair - Orbit

View from above orbital plane
View from above orbital plane
View from above satellite
View from above satellite

Ground track
Ground track

The orbit data is extracted from the following two-line orbital elements,

1 00082U 61004B   22175.75145859 -.00000020  00000-0  34687-4 0  9997
2 00082  38.8565 348.3879 1171665  41.6997 326.7277 12.26016252898301
Epoch (UTC): 24 June 2022 18:02:06
Eccentricity: 0.1171665
inclination: 38.8565°
perigee height: 635 km
apogee height: 2497 km
right ascension of ascending node: 348.3879°
argument of perigee: 41.6997°
revolutions per day: 12.26016252
mean anomaly at epoch: 326.7277°
orbit number at epoch: 89830

The dashed part of the orbit path shows where the satellite is in the earth's shadow,  

DLR